| time (UTC) | temp C | wind direction | speed KPH | gust KPH | rain 1hr cm | rain 24hr cm | rain mn cm | humidity % | barometer mb |
| 20260503000441 | 8 | 298 | 0.0 | 0.0 | 0.00 | 0.18 | 0.18 | 99 | |
| 20260502235938 | 9 | 297 | 0.0 | 1.6 | 0.00 | 0.18 | 0.18 | 99 | |
| 20260502235435 | 9 | 320 | 0.0 | 0.0 | 0.00 | 0.18 | 0.18 | 99 | |
| 20260502234932 | 9 | 311 | 0.0 | 1.6 | 0.00 | 0.18 | 0.18 | 99 | |
| 20260502234429 | 9 | 324 | 0.0 | 1.6 | 0.00 | 0.18 | 0.18 | 98 | |
| 20260502233926 | 9 | 278 | 1.6 | 1.6 | 0.00 | 0.18 | 0.18 | 98 | |
| 20260502233421 | 9 | 271 | 0.0 | 0.0 | 0.00 | 0.18 | 0.18 | 97 | |
| 20260502232919 | 10 | 270 | 1.6 | 1.6 | 0.00 | 0.18 | 0.18 | 97 | |
| 20260502232414 | 10 | 260 | 0.0 | 3.2 | 0.00 | 0.18 | 0.18 | 97 | |
| 20260502231912 | 10 | 283 | 3.2 | 3.2 | 0.00 | 0.18 | 0.18 | 97 | |
| 20260502231409 | 10 | 289 | 0.0 | 1.6 | 0.00 | 0.18 | 0.18 | 97 | |
| 20260502230907 | 10 | 290 | 0.0 | 1.6 | 0.00 | 0.18 | 0.18 | 98 | |
| 20260502230405 | 10 | 293 | 0.0 | 1.6 | 0.00 | 0.18 | 0.18 | 98 | |
| 20260502225902 | 10 | 304 | 0.0 | 1.6 | 0.00 | 0.18 | 0.18 | 98 | |
| 20260502225358 | 10 | 301 | 0.0 | 1.6 | 0.00 | 0.18 | 0.18 | 98 | |
| 20260502224855 | 10 | 323 | 3.2 | 3.2 | 0.00 | 0.18 | 0.18 | 98 | |
| 20260502224351 | 10 | 235 | 1.6 | 3.2 | 0.00 | 0.18 | 0.18 | 98 | |
| 20260502223849 | 10 | 282 | 1.6 | 1.6 | 0.00 | 0.18 | 0.18 | 98 | |
| 20260502223347 | 10 | 283 | 0.0 | 1.6 | 0.00 | 0.18 | 0.18 | 98 | |
| 20260502222844 | 10 | 277 | 0.0 | 0.0 | 0.00 | 0.18 | 0.18 | 98 | |
| 20260502222342 | 10 | 247 | 0.0 | 1.6 | 0.00 | 0.18 | 0.18 | 98 | |
| 20260502221837 | 10 | 276 | 0.0 | 1.6 | 0.00 | 0.18 | 0.18 | 97 | |
| 20260502221334 | 10 | 263 | 0.0 | 1.6 | 0.00 | 0.18 | 0.18 | 97 | |
| 20260502220831 | 10 | 286 | 0.0 | 0.0 | 0.00 | 0.18 | 0.18 | 97 | |
| 20260502220327 | 10 | 287 | 0.0 | 0.0 | 0.00 | 0.18 | 0.18 | 96 | |
| 20260502215823 | 10 | 275 | 1.6 | 3.2 | 0.00 | 0.18 | 0.18 | 96 | |
| 20260502215321 | 10 | 274 | 0.0 | 1.6 | 0.00 | 0.18 | 0.18 | 95 | |
| 20260502214818 | 10 | 285 | 1.6 | 1.6 | 0.13 | 0.18 | 0.18 | 95 | |
| 20260502214315 | 10 | 285 | 0.0 | 0.0 | 0.13 | 0.18 | 0.18 | 95 | |
| 20260502213812 | 10 | 285 | 0.0 | 0.0 | 0.00 | 0.15 | 0.15 | 95 | |
| 20260502213309 | 10 | 288 | 1.6 | 3.2 | 0.00 | 0.15 | 0.15 | 94 | |
| 20260502212808 | 10 | 311 | 1.6 | 3.2 | 0.18 | 0.15 | 0.15 | 93 | |
| 20260502212306 | 10 | 270 | 3.2 | 8.0 | 0.18 | 0.15 | 0.15 | 92 | |
| 20260502211802 | 10 | 283 | 0.0 | 4.8 | 0.00 | 0.13 | 0.13 | 92 | |
| 20260502211258 | 10 | 290 | 3.2 | 8.0 | 0.00 | 0.13 | 0.13 | 90 | |
| 20260502210755 | 10 | 282 | 4.8 | 8.0 | 0.00 | 0.13 | 0.13 | 88 | |
| 20260502210253 | 10 | 267 | 4.8 | 9.7 | 0.00 | 0.13 | 0.13 | 86 | |
| 20260502205750 | 10 | 297 | 4.8 | 9.7 | 0.00 | 0.13 | 0.13 | 86 | |
| 20260502205246 | 11 | 242 | 3.2 | 9.7 | 0.00 | 0.13 | 0.13 | 84 | |
| 20260502204743 | 12 | 322 | 0.0 | 3.2 | 0.00 | 0.13 | 0.13 | 75 | |
| 20260502204240 | 12 | 284 | 3.2 | 4.8 | 0.00 | 0.13 | 0.13 | 73 | |
| 20260502203738 | 12 | 30 | 1.6 | 8.0 | 0.00 | 0.13 | 0.13 | 73 | |
| 20260502203236 | 13 | 105 | 0.0 | 4.8 | 0.00 | 0.13 | 0.13 | 70 | |
| 20260502202730 | 14 | 23 | 1.6 | 4.8 | 0.00 | 0.13 | 0.13 | 69 | |
| 20260502202228 | 15 | 289 | 4.8 | 9.7 | 0.00 | 0.13 | 0.13 | 65 | |
| 20260502201725 | 15 | 207 | 4.8 | 9.7 | 0.00 | 0.13 | 0.13 | 64 | |
| 20260502201222 | 15 | 205 | 6.4 | 9.7 | 0.00 | 0.13 | 0.13 | 63 | |
| 20260502200718 | 15 | 121 | 1.6 | 9.7 | 0.00 | 0.13 | 0.13 | 64 | |
| 20260502200214 | 16 | 233 | 3.2 | 4.8 | 0.00 | 0.13 | 0.13 | 60 | |
| 20260502195713 | 15 | 53 | 1.6 | 9.7 | 0.00 | 0.13 | 0.13 | 61 | |
| 20260502195209 | 15 | 205 | 6.4 | 11.3 | 0.00 | 0.13 | 0.13 | 59 | |
| 20260502194706 | 14 | 228 | 3.2 | 4.8 | 0.00 | 0.13 | 0.13 | 59 | |
| 20260502194203 | 14 | 276 | 3.2 | 4.8 | 0.00 | 0.13 | 0.13 | 59 | |
| 20260502193658 | 15 | 230 | 3.2 | 14.5 | 0.00 | 0.13 | 0.13 | 59 | |
| 20260502193156 | 14 | 63 | 3.2 | 8.0 | 0.00 | 0.13 | 0.13 | 58 | |
| 20260502192651 | 14 | 226 | 6.4 | 11.3 | 0.00 | 0.13 | 0.13 | 59 | |
| 20260502192149 | 15 | 256 | 3.2 | 11.3 | 0.00 | 0.13 | 0.13 | 63 | |
| 20260502191645 | 15 | 182 | 3.2 | 11.3 | 0.00 | 0.13 | 0.13 | 65 | |
| 20260502191143 | 14 | 58 | 3.2 | 9.7 | 0.00 | 0.13 | 0.13 | 67 | |
| 20260502190640 | 15 | 278 | 8.0 | 14.5 | 0.00 | 0.13 | 0.13 | 66 | |
| 20260502190138 | 12 | 316 | 4.8 | 8.0 | 0.00 | 0.13 | 0.13 | 71 | |
| 20260502185632 | 13 | 286 | 8.0 | 17.7 | 0.00 | 0.13 | 0.13 | 74 | |
| 20260502185129 | 13 | 217 | 4.8 | 11.3 | 0.00 | 0.13 | 0.13 | 74 | |
| 20260502184625 | 13 | 168 | 1.6 | 12.9 | 0.00 | 0.13 | 0.13 | 77 | |
| 20260502184121 | 13 | 194 | 3.2 | 9.7 | 0.00 | 0.13 | 0.13 | 77 | |
| 20260502183618 | 13 | 220 | 4.8 | 8.0 | 0.00 | 0.13 | 0.13 | 75 | |
| 20260502183114 | 13 | 117 | 3.2 | 14.5 | 0.00 | 0.13 | 0.13 | 74 | |
| 20260502182609 | 15 | 194 | 6.4 | 8.0 | 0.00 | 0.13 | 0.13 | 75 | |
| 20260502182105 | 15 | 197 | 1.6 | 4.8 | 0.00 | 0.13 | 0.13 | 78 | |
| 20260502181603 | 15 | 130 | 3.2 | 4.8 | 0.00 | 0.13 | 0.13 | 78 | |
| 20260502181102 | 13 | 246 | 3.2 | 12.9 | 0.00 | 0.13 | 0.13 | 77 | |
| 20260502180558 | 13 | 222 | 3.2 | 16.1 | 0.00 | 0.13 | 0.13 | 76 | |
| 20260502170518 | 13 | 288 | 1.6 | 9.7 | 0.00 | 0.13 | 0.13 | 66 | |
| 20260502164001 | 12 | 251 | 3.2 | 14.5 | 0.00 | 0.13 | 0.13 | 67 | |
| 20260502163457 | 12 | 193 | 3.2 | 12.9 | 0.00 | 0.13 | 0.13 | 69 | |
| 20260502162954 | 12 | 211 | 3.2 | 4.8 | 0.00 | 0.13 | 0.13 | 77 | |
| 20260502162451 | 12 | 287 | 1.6 | 3.2 | 0.00 | 0.13 | 0.13 | 75 | |
| 20260502161948 | 12 | 185 | 8.0 | 11.3 | 0.00 | 0.13 | 0.13 | 75 | |
| 20260502161444 | 12 | 194 | 4.8 | 9.7 | 0.00 | 0.13 | 0.13 | 79 | |
| 20260502160943 | 12 | 232 | 9.7 | 12.9 | 0.00 | 0.13 | 0.13 | 76 | |
| 20260502160440 | 12 | 326 | 1.6 | 1.6 | 0.00 | 0.13 | 0.13 | 84 | |
| 20260502151924 | 11 | 44 | 0.0 | 1.6 | 0.00 | 0.13 | 0.13 | 92 | |
| 20260502151420 | 11 | 217 | 1.6 | 4.8 | 0.00 | 0.13 | 0.13 | 90 | |
| 20260502150918 | 12 | 239 | 1.6 | 4.8 | 0.00 | 0.13 | 0.13 | 90 | |
| 20260502150414 | 11 | 316 | 0.0 | 1.6 | 0.00 | 0.13 | 0.13 | 91 | |
| 20260502130300 | 8 | 284 | 1.6 | 3.2 | 0.18 | 0.05 | 0.05 | 97 | |
| 20260502123746 | 8 | 298 | 3.2 | 3.2 | 0.00 | 0.00 | 0.00 | 95 | |
| 20260502123242 | 8 | 259 | 1.6 | 8.0 | 0.00 | 0.00 | 0.00 | 95 | |
| 20260502122739 | 9 | 280 | 3.2 | 4.8 | 0.00 | 0.00 | 0.00 | 96 | |
| 20260502122235 | 9 | 277 | 3.2 | 4.8 | 0.00 | 0.00 | 0.00 | 96 | |
| 20260502121734 | 9 | 287 | 1.6 | 3.2 | 0.00 | 0.00 | 0.00 | 96 | |
| 20260502121231 | 9 | 274 | 3.2 | 4.8 | 0.00 | 0.00 | 0.00 | 95 | |
| 20260502120727 | 9 | 16 | 0.0 | 1.6 | 0.00 | 0.00 | 0.00 | 95 | |
| 20260502120224 | 8 | 305 | 0.0 | 1.6 | 0.00 | 0.00 | 0.00 | 94 | |
| 20260502115722 | 9 | 262 | 1.6 | 3.2 | 0.00 | 0.00 | 0.00 | 93 | |
| 20260502115219 | 9 | 265 | 4.8 | 4.8 | 0.00 | 0.00 | 0.00 | 93 | |
| 20260502114714 | 9 | 323 | 0.0 | 1.6 | 0.00 | 0.00 | 0.00 | 94 | |
| 20260502114212 | 9 | 21 | 0.0 | 3.2 | 0.00 | 0.00 | 0.00 | 94 | |
| 20260502113709 | 8 | 323 | 0.0 | 1.6 | 0.00 | 0.00 | 0.00 | 93 | |
| 20260502113207 | 8 | 300 | 0.0 | 1.6 | 0.00 | 0.00 | 0.00 | 93 | |
| 20260502112705 | 8 | 282 | 1.6 | 1.6 | 0.00 | 0.00 | 0.00 | 92 | |
| 20260502112202 | 8 | 234 | 3.2 | 4.8 | 0.00 | 0.00 | 0.00 | 92 | |
| 20260502111659 | 8 | 285 | 3.2 | 3.2 | 0.00 | 0.00 | 0.00 | 92 | |
| 20260502111157 | 8 | 284 | 0.0 | 0.0 | 0.00 | 0.00 | 0.00 | 92 | |
| 20260502110654 | 8 | 279 | 0.0 | 1.6 | 0.00 | 0.00 | 0.00 | 92 | |
| 20260502110151 | 8 | 327 | 0.0 | 1.6 | 0.00 | 0.00 | 0.00 | 92 | |
| 20260502105649 | 8 | 287 | 0.0 | 1.6 | 0.00 | 0.00 | 0.00 | 92 | |
| 20260502105146 | 8 | 250 | 1.6 | 1.6 | 0.00 | 0.00 | 0.00 | 91 | |
| 20260502104643 | 8 | 272 | 0.0 | 1.6 | 0.00 | 0.00 | 0.00 | 91 | |
| 20260502104140 | 8 | 278 | 1.6 | 1.6 | 0.00 | 0.00 | 0.00 | 90 | |
| 20260502103638 | 8 | 292 | 0.0 | 1.6 | 0.00 | 0.00 | 0.00 | 90 | |
| 20260502103136 | 8 | 296 | 0.0 | 1.6 | 0.00 | 0.00 | 0.00 | 90 | |
| 20260502102632 | 8 | 250 | 1.6 | 1.6 | 0.00 | 0.00 | 0.00 | 91 | |
| 20260502102129 | 8 | 333 | 0.0 | 0.0 | 0.00 | 0.00 | 0.00 | 91 | |
| 20260502101627 | 8 | 330 | 0.0 | 1.6 | 0.00 | 0.00 | 0.00 | 91 | |
| 20260502101125 | 8 | 334 | 0.0 | 0.0 | 0.00 | 0.00 | 0.00 | 91 | |
| 20260502100624 | 8 | 334 | 0.0 | 0.0 | 0.00 | 0.00 | 0.00 | 90 | |
| 20260502100121 | 8 | 334 | 0.0 | 1.6 | 0.00 | 0.00 | 0.00 | 90 | |
| 20260502091055 | 8 | 9 | 0.0 | 0.0 | 0.00 | 0.00 | 0.00 | 90 | |
| 20260502090552 | 8 | 9 | 0.0 | 0.0 | 0.00 | 0.00 | 0.00 | 89 | |
| 20260502071446 | 9 | 243 | 1.6 | 1.6 | 0.00 | 0.00 | 0.00 | 84 | |
| 20260502070944 | 9 | 211 | 0.0 | 3.2 | 0.00 | 0.00 | 0.00 | 83 | |
| 20260502070442 | 8 | 278 | 0.0 | 1.6 | 0.00 | 0.00 | 0.00 | 84 | |
| 20260502065941 | 8 | 244 | 1.6 | 3.2 | 0.00 | 0.00 | 0.00 | 83 | |
| 20260502065439 | 9 | 354 | 0.0 | 1.6 | 0.00 | 0.00 | 0.00 | 82 | |
| 20260502064936 | 10 | 279 | 0.0 | 1.6 | 0.00 | 0.00 | 0.00 | 78 | |
| 20260502064434 | 10 | 282 | 3.2 | 8.0 | 0.00 | 0.00 | 0.00 | 77 | |
| 20260502063931 | 10 | 255 | 3.2 | 11.3 | 0.00 | 0.00 | 0.00 | 75 | |
| 20260502063429 | 10 | 206 | 3.2 | 3.2 | 0.00 | 0.00 | 0.00 | 77 | |
| 20260502062926 | 9 | 249 | 3.2 | 4.8 | 0.00 | 0.00 | 0.00 | 76 | |
| 20260502062423 | 9 | 269 | 1.6 | 3.2 | 0.00 | 0.00 | 0.00 | 77 | |
| 20260502061922 | 9 | 284 | 1.6 | 1.6 | 0.00 | 0.00 | 0.00 | 76 | |
| 20260502061420 | 9 | 286 | 1.6 | 4.8 | 0.00 | 0.00 | 0.00 | 76 | |
| 20260502060915 | 8 | 268 | 0.0 | 1.6 | 0.00 | 0.00 | 0.00 | 77 | |
| 20260502060410 | 8 | 222 | 1.6 | 4.8 | 0.00 | 0.00 | 0.00 | 77 | |
| 20260502055908 | 8 | 289 | 1.6 | 3.2 | 0.00 | 0.00 | 0.00 | 77 | |
| 20260502055405 | 7 | 94 | 0.0 | 0.0 | 0.00 | 0.00 | 0.00 | 79 | |
| 20260502054900 | 7 | 94 | 0.0 | 0.0 | 0.00 | 0.00 | 0.00 | 82 | |
| 20260502054357 | 7 | 94 | 0.0 | 0.0 | 0.00 | 0.00 | 0.00 | 83 | |
| 20260502053854 | 7 | 94 | 0.0 | 0.0 | 0.00 | 0.00 | 0.00 | 82 | |
| 20260502053351 | 7 | 94 | 0.0 | 0.0 | 0.00 | 0.00 | 0.00 | 80 | |
| 20260502052849 | 7 | 94 | 0.0 | 0.0 | 0.00 | 0.00 | 0.00 | 80 | |
| 20260502052347 | 7 | 95 | 0.0 | 0.0 | 0.00 | 0.00 | 0.00 | 78 | |
| 20260502051844 | 7 | 89 | 0.0 | 0.0 | 0.00 | 0.00 | 0.00 | 78 | |
| 20260502051343 | 7 | 89 | 0.0 | 0.0 | 0.00 | 0.00 | 0.00 | 78 | |
| 20260502050839 | 7 | 88 | 0.0 | 1.6 | 0.00 | 0.00 | 0.00 | 77 | |
| 20260502050335 | 7 | 89 | 0.0 | 0.0 | 0.00 | 0.00 | 0.00 | 77 | |
| 20260502045832 | 7 | 88 | 0.0 | 0.0 | 0.00 | 0.00 | 0.00 | 78 | |
| 20260502045329 | 7 | 89 | 0.0 | 0.0 | 0.00 | 0.00 | 0.00 | 79 | |
| 20260502044826 | 7 | 89 | 0.0 | 0.0 | 0.00 | 0.00 | 0.00 | 81 | |
| 20260502044322 | 6 | 89 | 0.0 | 0.0 | 0.00 | 0.00 | 0.00 | 82 | |
| 20260502043820 | 6 | 89 | 0.0 | 0.0 | 0.00 | 0.00 | 0.00 | 83 | |
| 20260502043317 | 6 | 89 | 0.0 | 1.6 | 0.00 | 0.00 | 0.00 | 84 | |
| 20260502042817 | 6 | 89 | 0.0 | 0.0 | 0.00 | 0.00 | 0.00 | 82 | |
| 20260502042314 | 6 | 89 | 0.0 | 1.6 | 0.00 | 0.00 | 0.00 | 81 | |
| 20260502041812 | 7 | 101 | 0.0 | 0.0 | 0.00 | 0.00 | 0.00 | 80 | |
| 20260502041309 | 7 | 258 | 0.0 | 0.0 | 0.00 | 0.00 | 0.00 | 80 | |
| 20260502040806 | 7 | 258 | 0.0 | 0.0 | 0.00 | 0.00 | 0.00 | 78 | |
| 20260502040303 | 8 | 258 | 0.0 | 0.0 | 0.00 | 0.00 | 0.00 | 76 | |
| 20260502035759 | 8 | 258 | 0.0 | 1.6 | 0.00 | 0.00 | 0.00 | 76 | |
| 20260502035255 | 8 | 258 | 0.0 | 1.6 | 0.00 | 0.00 | 0.00 | 73 | |
| 20260502034753 | 8 | 258 | 0.0 | 1.6 | 0.00 | 0.00 | 0.00 | 70 | |
| 20260502034251 | 8 | 251 | 1.6 | 3.2 | 0.00 | 0.00 | 0.00 | 73 | |
| 20260502033749 | 8 | 270 | 0.0 | 1.6 | 0.00 | 0.00 | 0.00 | 75 | |
| 20260502033246 | 8 | 278 | 0.0 | 1.6 | 0.00 | 0.00 | 0.00 | 75 | |
| 20260502032743 | 8 | 282 | 0.0 | 1.6 | 0.00 | 0.00 | 0.00 | 73 | |
| 20260502032239 | 8 | 297 | 1.6 | 3.2 | 0.00 | 0.00 | 0.00 | 70 | |
| 20260502031737 | 8 | 265 | 1.6 | 3.2 | 0.00 | 0.00 | 0.00 | 70 | |
| 20260502031235 | 8 | 289 | 0.0 | 3.2 | 0.00 | 0.00 | 0.00 | 75 | |
| 20260502030733 | 7 | 293 | 3.2 | 3.2 | 0.00 | 0.00 | 0.00 | 78 | |
| 20260502030231 | 7 | 15 | 1.6 | 1.6 | 0.00 | 0.00 | 0.00 | 81 | |
| 20260502025728 | 7 | 301 | 0.0 | 0.0 | 0.00 | 0.00 | 0.00 | 80 | |
| 20260502025226 | 8 | 301 | 0.0 | 0.0 | 0.00 | 0.00 | 0.00 | 80 | |
| 20260502024723 | 8 | 301 | 0.0 | 0.0 | 0.00 | 0.00 | 0.00 | 79 | |
| 20260502024221 | 8 | 301 | 0.0 | 0.0 | 0.00 | 0.00 | 0.00 | 79 | |
| 20260502023719 | 8 | 301 | 0.0 | 0.0 | 0.00 | 0.00 | 0.00 | 78 | |
| 20260502023216 | 8 | 301 | 0.0 | 0.0 | 0.00 | 0.00 | 0.00 | 77 | |
| 20260502022714 | 8 | 301 | 0.0 | 0.0 | 0.00 | 0.00 | 0.00 | 76 | |
| 20260502022210 | 8 | 300 | 0.0 | 1.6 | 0.00 | 0.00 | 0.00 | 76 | |
| 20260502021707 | 8 | 301 | 1.6 | 1.6 | 0.00 | 0.00 | 0.00 | 76 | |
| 20260502021204 | 8 | 301 | 0.0 | 1.6 | 0.00 | 0.00 | 0.00 | 75 | |
| 20260502020701 | 8 | 301 | 0.0 | 0.0 | 0.00 | 0.00 | 0.00 | 73 | |
| 20260502020158 | 8 | 301 | 0.0 | 0.0 | 0.00 | 0.00 | 0.00 | 72 | |
| 20260502015656 | 8 | 301 | 0.0 | 1.6 | 0.00 | 0.00 | 0.00 | 71 | |
| 20260502015152 | 8 | 291 | 0.0 | 1.6 | 0.00 | 0.00 | 0.00 | 72 | |
| 20260502014650 | 8 | 299 | 0.0 | 1.6 | 0.00 | 0.00 | 0.00 | 72 | |
| 20260502014147 | 8 | 321 | 1.6 | 1.6 | 0.00 | 0.00 | 0.00 | 74 | |
| 20260502013643 | 8 | 341 | 0.0 | 0.0 | 0.00 | 0.00 | 0.00 | 74 | |
| 20260502013138 | 8 | 321 | 0.0 | 1.6 | 0.00 | 0.00 | 0.00 | 74 | |
| 20260502012636 | 9 | 321 | 0.0 | 1.6 | 0.00 | 0.00 | 0.00 | 72 | |
| 20260502012134 | 9 | 321 | 0.0 | 1.6 | 0.00 | 0.00 | 0.00 | 72 | |
| 20260502011630 | 9 | 321 | 0.0 | 0.0 | 0.00 | 0.00 | 0.00 | 70 | |
| 20260502011126 | 10 | 321 | 0.0 | 1.6 | 0.00 | 0.00 | 0.00 | 68 | |
| 20260502010624 | 10 | 321 | 0.0 | 1.6 | 0.00 | 0.00 | 0.00 | 68 | |
| 20260502010120 | 10 | 321 | 0.0 | 1.6 | 0.00 | 0.00 | 0.00 | 66 | |
| 20260502005618 | 10 | 321 | 0.0 | 1.6 | 0.00 | 0.00 | 0.00 | 66 | |
| 20260502005115 | 10 | 322 | 0.0 | 1.6 | 0.00 | 0.00 | 0.00 | 65 | |
| 20260502004611 | 10 | 308 | 0.0 | 1.6 | 0.00 | 0.00 | 0.00 | 67 | |
| 20260502004108 | 10 | 308 | 1.6 | 1.6 | 0.00 | 0.00 | 0.00 | 63 | |
| 20260502003606 | 11 | 308 | 0.0 | 0.0 | 0.00 | 0.00 | 0.00 | 62 | |
| 20260502003102 | 11 | 308 | 0.0 | 1.6 | 0.00 | 0.00 | 0.00 | 61 | |
| 20260502002558 | 11 | 308 | 1.6 | 1.6 | 0.00 | 0.00 | 0.00 | 65 | |
| 20260502002056 | 11 | 308 | 0.0 | 0.0 | 0.00 | 0.00 | 0.00 | 62 | |
| 20260502001554 | 11 | 308 | 0.0 | 1.6 | 0.00 | 0.00 | 0.00 | 54 | |
| 20260502001050 | 11 | 309 | 0.0 | 0.0 | 0.00 | 0.00 | 0.00 | 51 |